Time,TemperatureF,DewpointF,PressureIn,WindDirection,WindDirectionDegrees,WindSpeedMPH,WindSpeedGustMPH,Humidity,HourlyPrecipIn,Conditions,Clouds,dailyrainin,SoftwareType,DateUTC
2013-07-14 00:04:00,62.6,48.9,30.31,SSE,157,0.0,3.0,61,0.00,,,0.00,meteohub,2013-07-14 07:04:00,
2013-07-14 00:09:00,62.4,49.3,30.31,SE,133,0.0,3.0,62,0.00,,,0.00,meteohub,2013-07-14 07:09:00,
2013-07-14 00:11:00,62.2,49.1,30.31,SE,134,0.0,3.0,62,0.00,,,0.00,meteohub,2013-07-14 07:11:00,
2013-07-14 00:16:00,61.9,49.1,30.31,SSW,206,1.0,1.0,63,0.00,,,0.00,meteohub,2013-07-14 07:16:00,
2013-07-14 00:21:00,61.5,49.3,30.32,SSW,211,0.0,2.0,64,0.00,,,0.00,meteohub,2013-07-14 07:21:00,
2013-07-14 00:26:00,61.3,49.8,30.32,SE,131,1.0,2.0,66,0.00,,,0.00,meteohub,2013-07-14 07:26:00,
2013-07-14 00:31:00,61.0,49.5,30.32,SE,143,1.0,2.0,66,0.00,,,0.00,meteohub,2013-07-14 07:31:00,
2013-07-14 00:36:00,60.8,49.8,30.32,SE,133,0.0,2.0,67,0.00,,,0.00,meteohub,2013-07-14 07:36:00,
2013-07-14 00:42:00,60.6,50.4,30.32,SE,133,0.0,2.0,69,0.00,,,0.00,meteohub,2013-07-14 07:42:00,
2013-07-14 00:47:00,60.6,50.4,30.32,SE,134,0.0,1.0,69,0.00,,,0.00,meteohub,2013-07-14 07:47:00,
2013-07-14 00:52:00,60.6,50.0,30.32,SSE,156,2.0,2.0,68,0.00,,,0.00,meteohub,2013-07-14 07:52:00,
2013-07-14 00:57:00,60.6,49.6,30.32,SSE,150,1.0,3.0,67,0.00,,,0.00,meteohub,2013-07-14 07:57:00,
2013-07-14 01:02:00,60.4,49.5,30.32,SE,144,2.0,3.0,67,0.00,,,0.00,meteohub,2013-07-14 08:02:00,
2013-07-14 01:07:00,60.1,48.7,30.32,SW,214,2.0,3.0,66,0.00,,,0.00,meteohub,2013-07-14 08:07:00,
2013-07-14 01:12:00,59.9,48.9,30.32,South,170,3.0,4.0,67,0.00,,,0.00,meteohub,2013-07-14 08:12:00,
2013-07-14 01:17:00,59.5,48.6,30.32,South,183,2.0,4.0,67,0.00,,,0.00,meteohub,2013-07-14 08:17:00,
2013-07-14 01:22:00,59.4,48.4,30.32,SSE,150,2.0,4.0,67,0.00,,,0.00,meteohub,2013-07-14 08:22:00,
2013-07-14 01:27:00,59.4,48.4,30.33,SSE,159,2.0,4.0,67,0.00,,,0.00,meteohub,2013-07-14 08:27:00,
2013-07-14 01:32:00,59.2,48.2,30.33,SSE,168,3.0,4.0,67,0.00,,,0.00,meteohub,2013-07-14 08:32:00,
2013-07-14 01:37:00,59.0,48.0,30.33,SE,146,3.0,4.0,67,0.00,,,0.00,meteohub,2013-07-14 08:37:00,
2013-07-14 01:42:00,58.8,48.2,30.33,SSE,166,2.0,4.0,68,0.00,,,0.00,meteohub,2013-07-14 08:42:00,
2013-07-14 01:48:00,58.5,48.4,30.33,South,186,3.0,4.0,69,0.00,,,0.00,meteohub,2013-07-14 08:48:00,
2013-07-14 01:53:00,57.9,48.2,30.33,SSE,159,0.0,5.0,70,0.00,,,0.00,meteohub,2013-07-14 08:53:00,
2013-07-14 01:58:00,57.7,48.4,30.33,SSE,150,1.0,5.0,71,0.00,,,0.00,meteohub,2013-07-14 08:58:00,
2013-07-14 02:03:00,57.7,48.0,30.33,SSE,161,3.0,5.0,70,0.00,,,0.00,meteohub,2013-07-14 09:03:00,
2013-07-14 02:08:00,57.6,47.8,30.33,SSE,164,2.0,4.0,70,0.00,,,0.00,meteohub,2013-07-14 09:08:00,
2013-07-14 02:13:00,57.6,47.8,30.33,South,173,1.0,4.0,70,0.00,,,0.00,meteohub,2013-07-14 09:13:00,
2013-07-14 02:18:00,57.4,47.7,30.33,SSE,159,1.0,4.0,70,0.00,,,0.00,meteohub,2013-07-14 09:18:00,
2013-07-14 02:23:00,57.2,47.8,30.33,SSW,194,1.0,4.0,71,0.00,,,0.00,meteohub,2013-07-14 09:23:00,
2013-07-14 02:28:00,57.0,47.7,30.33,SSE,157,2.0,4.0,71,0.00,,,0.00,meteohub,2013-07-14 09:28:00,
2013-07-14 02:33:00,56.8,47.5,30.33,SSE,156,3.0,4.0,71,0.00,,,0.00,meteohub,2013-07-14 09:33:00,
2013-07-14 02:38:00,56.7,47.7,30.33,SSE,165,1.0,4.0,72,0.00,,,0.00,meteohub,2013-07-14 09:38:00,
2013-07-14 02:43:00,56.5,47.5,30.34,SSE,159,3.0,3.0,72,0.00,,,0.00,meteohub,2013-07-14 09:43:00,
2013-07-14 02:48:00,56.5,47.5,30.34,ESE,120,0.0,3.0,72,0.00,,,0.00,meteohub,2013-07-14 09:48:00,
2013-07-14 02:54:00,56.1,47.3,30.33,East,93,0.0,4.0,72,0.00,,,0.00,meteohub,2013-07-14 09:54:00,
2013-07-14 02:59:00,55.8,47.3,30.34,East,92,0.0,4.0,73,0.00,,,0.00,meteohub,2013-07-14 09:59:00,
2013-07-14 03:04:00,55.4,46.9,30.34,East,93,0.0,4.0,73,0.00,,,0.00,meteohub,2013-07-14 10:04:00,
2013-07-14 03:09:00,55.2,47.1,30.34,SSE,156,1.0,1.0,74,0.00,,,0.00,meteohub,2013-07-14 10:09:00,
2013-07-14 03:14:00,55.0,46.9,30.34,SSE,156,0.0,1.0,74,0.00,,,0.00,meteohub,2013-07-14 10:14:00,
2013-07-14 03:19:00,54.9,46.8,30.34,SSE,156,2.0,2.0,74,0.00,,,0.00,meteohub,2013-07-14 10:19:00,
2013-07-14 03:24:00,54.7,46.9,30.34,SW,223,0.0,3.0,75,0.00,,,0.00,meteohub,2013-07-14 10:24:00,
2013-07-14 03:29:00,54.5,46.8,30.34,South,178,1.0,3.0,75,0.00,,,0.00,meteohub,2013-07-14 10:29:00,
2013-07-14 03:34:00,54.3,46.9,30.34,SE,128,1.0,3.0,76,0.00,,,0.00,meteohub,2013-07-14 10:34:00,
2013-07-14 03:39:00,54.0,46.6,30.34,SE,145,0.0,3.0,76,0.00,,,0.00,meteohub,2013-07-14 10:39:00,
2013-07-14 03:44:00,53.4,46.4,30.34,SSE,159,0.0,3.0,77,0.00,,,0.00,meteohub,2013-07-14 10:44:00,
2013-07-14 03:49:00,53.2,46.2,30.34,SE,138,0.0,3.0,77,0.00,,,0.00,meteohub,2013-07-14 10:49:00,
2013-07-14 03:55:00,53.1,46.0,30.34,SE,132,0.0,3.0,77,0.00,,,0.00,meteohub,2013-07-14 10:55:00,
2013-07-14 04:00:00,52.9,46.2,30.34,SSE,153,3.0,3.0,78,0.00,,,0.00,meteohub,2013-07-14 11:00:00,
2013-07-14 04:05:00,52.9,46.6,30.34,South,169,2.0,4.0,79,0.00,,,0.00,meteohub,2013-07-14 11:05:00,
2013-07-14 04:10:00,52.5,46.2,30.34,South,183,2.0,4.0,79,0.00,,,0.00,meteohub,2013-07-14 11:10:00,
2013-07-14 04:15:00,52.5,46.6,30.34,SSE,157,1.0,4.0,80,0.00,,,0.00,meteohub,2013-07-14 11:15:00,
2013-07-14 04:20:00,52.3,46.8,30.34,SSE,161,2.0,4.0,81,0.00,,,0.00,meteohub,2013-07-14 11:20:00,
2013-07-14 04:25:00,52.3,46.9,30.35,SSE,159,1.0,3.0,82,0.00,,,0.00,meteohub,2013-07-14 11:25:00,
2013-07-14 04:30:00,52.3,46.9,30.35,SE,134,0.0,3.0,82,0.00,,,0.00,meteohub,2013-07-14 11:30:00,
2013-07-14 04:35:00,52.2,46.8,30.35,SSE,155,2.0,3.0,82,0.00,,,0.00,meteohub,2013-07-14 11:35:00,
2013-07-14 04:40:00,52.2,47.1,30.35,SSE,156,2.0,4.0,83,0.00,,,0.00,meteohub,2013-07-14 11:40:00,
2013-07-14 04:45:00,52.0,46.9,30.35,SE,146,1.0,4.0,83,0.00,,,0.00,meteohub,2013-07-14 11:45:00,
2013-07-14 04:50:00,52.0,46.9,30.35,SE,129,0.0,4.0,83,0.00,,,0.00,meteohub,2013-07-14 11:50:00,
2013-07-14 04:53:00,52.0,46.9,30.35,East,98,1.0,4.0,83,0.00,,,0.00,meteohub,2013-07-14 11:53:00,
2013-07-14 04:59:00,51.8,47.1,30.35,SSE,151,0.0,3.0,84,0.00,,,0.00,meteohub,2013-07-14 11:59:00,
2013-07-14 05:04:00,51.4,46.8,30.35,SE,146,0.0,2.0,84,0.00,,,0.00,meteohub,2013-07-14 12:04:00,
2013-07-14 05:09:00,51.4,46.8,30.35,SSE,164,3.0,3.0,84,0.00,,,0.00,meteohub,2013-07-14 12:09:00,
2013-07-14 05:14:00,51.6,46.9,30.35,SE,131,2.0,2.0,84,0.00,,,0.00,meteohub,2013-07-14 12:14:00,
2013-07-14 05:19:00,51.4,46.8,30.35,SSE,150,1.0,3.0,84,0.00,,,0.00,meteohub,2013-07-14 12:19:00,
2013-07-14 05:24:00,51.3,46.9,30.35,SSE,164,1.0,3.0,85,0.00,,,0.00,meteohub,2013-07-14 12:24:00,
2013-07-14 05:29:00,51.3,46.9,30.35,SSE,153,2.0,3.0,85,0.00,,,0.00,meteohub,2013-07-14 12:29:00,
2013-07-14 05:34:00,51.1,46.8,30.35,SSE,167,2.0,3.0,85,0.00,,,0.00,meteohub,2013-07-14 12:34:00,
2013-07-14 05:39:00,51.1,46.8,30.35,SSE,161,3.0,3.0,85,0.00,,,0.00,meteohub,2013-07-14 12:39:00,
2013-07-14 05:44:00,51.3,46.9,30.35,SSE,162,1.0,4.0,85,0.00,,,0.00,meteohub,2013-07-14 12:44:00,
2013-07-14 05:49:00,51.1,46.4,30.35,SSE,167,2.0,4.0,84,0.00,,,0.00,meteohub,2013-07-14 12:49:00,
2013-07-14 05:55:00,50.9,46.6,30.35,SSE,157,2.0,4.0,85,0.00,,,0.00,meteohub,2013-07-14 12:55:00,
2013-07-14 06:00:00,51.1,46.4,30.35,SSE,163,1.0,4.0,84,0.00,,,0.00,meteohub,2013-07-14 13:00:00,
2013-07-14 06:05:00,51.3,46.6,30.35,SE,132,0.0,4.0,84,0.00,,,0.00,meteohub,2013-07-14 13:05:00,
2013-07-14 06:10:00,52.0,46.6,30.35,SSE,159,1.0,3.0,82,0.00,,,0.00,meteohub,2013-07-14 13:10:00,
2013-07-14 06:15:00,52.7,46.8,30.35,SSE,159,2.0,3.0,80,0.00,,,0.00,meteohub,2013-07-14 13:15:00,
2013-07-14 06:20:00,53.2,46.9,30.35,SE,136,3.0,4.0,79,0.00,,,0.00,meteohub,2013-07-14 13:20:00,
2013-07-14 06:25:00,53.6,46.9,30.35,South,173,3.0,4.0,78,0.00,,,0.00,meteohub,2013-07-14 13:25:00,
2013-07-14 06:30:00,53.8,47.1,30.36,SSE,161,1.0,4.0,78,0.00,,,0.00,meteohub,2013-07-14 13:30:00,
2013-07-14 06:35:00,54.3,46.6,30.36,SSE,163,4.0,4.0,75,0.00,,,0.00,meteohub,2013-07-14 13:35:00,
2013-07-14 06:40:00,54.7,46.2,30.36,SSW,200,0.0,4.0,73,0.00,,,0.00,meteohub,2013-07-14 13:40:00,
2013-07-14 06:45:00,55.0,46.6,30.36,SE,141,1.0,4.0,73,0.00,,,0.00,meteohub,2013-07-14 13:45:00,
2013-07-14 06:50:00,55.6,47.1,30.36,SSE,150,1.0,4.0,73,0.00,,,0.00,meteohub,2013-07-14 13:50:00,
2013-07-14 06:56:00,56.3,46.9,30.36,SSE,150,0.0,3.0,71,0.00,,,0.00,meteohub,2013-07-14 13:56:00,
2013-07-14 07:01:00,57.6,47.8,30.36,SSE,150,0.0,3.0,70,0.00,,,0.00,meteohub,2013-07-14 14:01:00,
2013-07-14 07:06:00,58.5,48.0,30.36,SSE,151,0.0,2.0,68,0.00,,,0.00,meteohub,2013-07-14 14:06:00,
2013-07-14 07:11:00,59.7,48.0,30.36,SE,144,1.0,0.0,65,0.00,,,0.00,meteohub,2013-07-14 14:11:00,
2013-07-14 07:16:00,59.9,48.6,30.36,SE,136,0.0,2.0,66,0.00,,,0.00,meteohub,2013-07-14 14:16:00,
2013-07-14 07:21:00,61.0,48.7,30.36,SE,136,0.0,2.0,64,0.00,,,0.00,meteohub,2013-07-14 14:21:00,
2013-07-14 07:26:00,61.5,49.3,30.36,SE,134,0.0,2.0,64,0.00,,,0.00,meteohub,2013-07-14 14:26:00,
2013-07-14 07:32:00,62.2,48.6,30.36,NNW,344,1.0,1.0,61,0.00,,,0.00,meteohub,2013-07-14 14:32:00,
2013-07-14 07:37:00,61.7,48.2,30.36,NE,53,0.0,2.0,61,0.00,,,0.00,meteohub,2013-07-14 14:37:00,
2013-07-14 07:42:00,61.3,47.3,30.36,NNE,31,0.0,2.0,60,0.00,,,0.00,meteohub,2013-07-14 14:42:00,
2013-07-14 07:47:00,61.7,48.6,30.36,ENE,63,2.0,3.0,62,0.00,,,0.00,meteohub,2013-07-14 14:47:00,
2013-07-14 07:52:00,62.1,49.3,30.36,East,83,0.0,3.0,63,0.00,,,0.00,meteohub,2013-07-14 14:52:00,
2013-07-14 07:57:00,62.4,49.3,30.35,East,81,0.0,2.0,62,0.00,,,0.00,meteohub,2013-07-14 14:57:00,
2013-07-14 08:02:00,63.0,49.8,30.35,SE,135,1.0,2.0,62,0.00,,,0.00,meteohub,2013-07-14 15:02:00,
2013-07-14 08:07:00,63.7,49.5,30.35,SSE,164,0.0,2.0,60,0.00,,,0.00,meteohub,2013-07-14 15:07:00,
2013-07-14 08:12:00,63.9,49.3,30.35,NE,38,1.0,2.0,59,0.00,,,0.00,meteohub,2013-07-14 15:12:00,
2013-07-14 08:17:00,63.7,49.1,30.35,NE,40,1.0,2.0,59,0.00,,,0.00,meteohub,2013-07-14 15:17:00,
2013-07-14 08:22:00,63.7,49.1,30.35,NNW,347,3.0,3.0,59,0.00,,,0.00,meteohub,2013-07-14 15:22:00,
2013-07-14 08:27:00,63.5,48.9,30.35,NNW,333,0.0,4.0,59,0.00,,,0.00,meteohub,2013-07-14 15:27:00,
2013-07-14 08:33:00,63.7,49.1,30.35,NNE,28,2.0,4.0,59,0.00,,,0.00,meteohub,2013-07-14 15:33:00,
2013-07-14 08:38:00,64.6,49.5,30.35,East,91,1.0,4.0,58,0.00,,,0.00,meteohub,2013-07-14 15:38:00,
2013-07-14 08:43:00,65.3,48.7,30.35,ESE,103,2.0,3.0,55,0.00,,,0.00,meteohub,2013-07-14 15:43:00,
2013-07-14 08:48:00,65.7,48.6,30.35,SE,144,0.0,3.0,54,0.00,,,0.00,meteohub,2013-07-14 15:48:00,
2013-07-14 08:53:00,66.4,48.2,30.35,NE,46,0.0,3.0,52,0.00,,,0.00,meteohub,2013-07-14 15:53:00,
2013-07-14 08:58:00,66.6,47.3,30.35,North,349,1.0,3.0,50,0.00,,,0.00,meteohub,2013-07-14 15:58:00,
2013-07-14 09:03:00,66.4,48.7,30.34,NW,312,0.0,3.0,53,0.00,,,0.00,meteohub,2013-07-14 16:03:00,
2013-07-14 09:09:00,66.7,48.6,30.34,NW,311,0.0,3.0,52,0.00,,,0.00,meteohub,2013-07-14 16:09:00,
2013-07-14 09:14:00,67.1,48.4,30.34,NE,40,3.0,3.0,51,0.00,,,0.00,meteohub,2013-07-14 16:14:00,
2013-07-14 09:19:00,67.8,48.6,30.34,WNW,294,1.0,4.0,50,0.00,,,0.00,meteohub,2013-07-14 16:19:00,
2013-07-14 09:24:00,68.2,48.9,30.34,NNW,334,3.0,4.0,50,0.00,,,0.00,meteohub,2013-07-14 16:24:00,
2013-07-14 09:29:00,68.2,49.3,30.34,ESE,118,1.0,5.0,51,0.00,,,0.00,meteohub,2013-07-14 16:29:00,
2013-07-14 09:34:00,69.1,49.1,30.34,SE,146,1.0,5.0,49,0.00,,,0.00,meteohub,2013-07-14 16:34:00,
2013-07-14 09:39:00,69.3,48.7,30.34,SE,128,0.0,5.0,48,0.00,,,0.00,meteohub,2013-07-14 16:39:00,
2013-07-14 09:44:00,70.0,48.2,30.33,SSE,150,0.0,3.0,46,0.00,,,0.00,meteohub,2013-07-14 16:44:00,
2013-07-14 09:50:00,70.9,50.2,30.33,NNE,26,2.0,4.0,48,0.00,,,0.00,meteohub,2013-07-14 16:50:00,
2013-07-14 09:55:00,70.9,49.1,30.33,NNE,17,1.0,4.0,46,0.00,,,0.00,meteohub,2013-07-14 16:55:00,
2013-07-14 10:00:00,71.1,49.8,30.33,NW,322,2.0,4.0,47,0.00,,,0.00,meteohub,2013-07-14 17:00:00,
2013-07-14 10:05:00,70.9,49.1,30.32,WNW,298,1.0,3.0,46,0.00,,,0.00,meteohub,2013-07-14 17:05:00,
2013-07-14 10:10:00,70.9,50.2,30.32,NNE,32,3.0,4.0,48,0.00,,,0.00,meteohub,2013-07-14 17:10:00,
2013-07-14 10:15:00,71.1,50.4,30.32,North,350,0.0,4.0,48,0.00,,,0.00,meteohub,2013-07-14 17:15:00,
2013-07-14 10:20:00,71.4,50.2,30.32,NNW,329,2.0,4.0,47,0.00,,,0.00,meteohub,2013-07-14 17:20:00,
2013-07-14 10:26:00,72.0,50.7,30.32,NE,39,2.0,4.0,47,0.00,,,0.00,meteohub,2013-07-14 17:26:00,
2013-07-14 10:31:00,72.7,50.7,30.31,NW,326,3.0,4.0,46,0.00,,,0.00,meteohub,2013-07-14 17:31:00,
2013-07-14 10:36:00,72.3,49.1,30.31,North,349,2.0,5.0,44,0.00,,,0.00,meteohub,2013-07-14 17:36:00,
2013-07-14 10:41:00,72.7,48.9,30.31,NNE,30,1.0,5.0,43,0.00,,,0.00,meteohub,2013-07-14 17:41:00,
2013-07-14 10:46:00,73.2,47.5,30.31,NE,44,0.0,5.0,40,0.00,,,0.00,meteohub,2013-07-14 17:46:00,
2013-07-14 10:51:00,73.9,49.5,30.30,North,5,2.0,5.0,42,0.00,,,0.00,meteohub,2013-07-14 17:51:00,
2013-07-14 10:57:00,74.1,48.2,30.31,NNW,348,2.0,4.0,40,0.00,,,0.00,meteohub,2013-07-14 17:57:00,
2013-07-14 11:02:00,74.3,49.6,30.30,NW,326,1.0,4.0,42,0.00,,,0.00,meteohub,2013-07-14 18:02:00,
2013-07-14 11:07:00,74.7,49.5,30.30,NW,322,1.0,4.0,41,0.00,,,0.00,meteohub,2013-07-14 18:07:00,
2013-07-14 11:12:00,75.0,49.1,30.30,NNW,338,2.0,4.0,40,0.00,,,0.00,meteohub,2013-07-14 18:12:00,
2013-07-14 11:17:00,75.4,49.5,30.30,NNW,339,3.0,4.0,40,0.00,,,0.00,meteohub,2013-07-14 18:17:00,
2013-07-14 11:22:00,75.2,49.3,30.30,NW,309,2.0,6.0,40,0.00,,,0.00,meteohub,2013-07-14 18:22:00,
2013-07-14 11:27:00,75.2,49.8,30.30,NNW,333,3.0,6.0,41,0.00,,,0.00,meteohub,2013-07-14 18:27:00,
2013-07-14 11:32:00,75.4,50.0,30.30,NW,323,4.0,6.0,41,0.00,,,0.00,meteohub,2013-07-14 18:32:00,
2013-07-14 11:37:00,75.6,50.2,30.29,NW,304,3.0,5.0,41,0.00,,,0.00,meteohub,2013-07-14 18:37:00,
2013-07-14 11:42:00,75.9,49.8,30.29,WNW,292,2.0,5.0,40,0.00,,,0.00,meteohub,2013-07-14 18:42:00,
2013-07-14 11:47:00,76.3,49.5,30.29,NNW,333,3.0,5.0,39,0.00,,,0.00,meteohub,2013-07-14 18:47:00,
2013-07-14 11:52:00,76.8,49.3,30.29,West,275,1.0,5.0,38,0.00,,,0.00,meteohub,2013-07-14 18:52:00,
2013-07-14 11:57:00,77.5,50.0,30.28,WNW,290,3.0,5.0,38,0.00,,,0.00,meteohub,2013-07-14 18:57:00,
2013-07-14 12:02:00,77.7,50.0,30.28,WNW,295,3.0,5.0,38,0.00,,,0.00,meteohub,2013-07-14 19:02:00,
2013-07-14 12:07:00,78.4,47.7,30.28,West,277,3.0,5.0,34,0.00,,,0.00,meteohub,2013-07-14 19:07:00,
2013-07-14 12:12:00,79.0,46.6,30.28,WNW,290,4.0,5.0,32,0.00,,,0.00,meteohub,2013-07-14 19:12:00,
2013-07-14 12:17:00,78.8,48.0,30.27,NNW,331,2.0,5.0,34,0.00,,,0.00,meteohub,2013-07-14 19:17:00,
2013-07-14 12:22:00,79.2,46.8,30.27,NW,322,2.0,5.0,32,0.00,,,0.00,meteohub,2013-07-14 19:22:00,
2013-07-14 12:27:00,79.9,46.6,30.27,NNE,12,2.0,5.0,31,0.00,,,0.00,meteohub,2013-07-14 19:27:00,
2013-07-14 12:32:00,80.2,46.9,30.27,NW,309,2.0,5.0,31,0.00,,,0.00,meteohub,2013-07-14 19:32:00,
2013-07-14 12:37:00,81.0,44.8,30.27,NW,314,3.0,5.0,28,0.00,,,0.00,meteohub,2013-07-14 19:37:00,
2013-07-14 12:42:00,81.3,46.0,30.26,WNW,290,4.0,4.0,29,0.00,,,0.00,meteohub,2013-07-14 19:42:00,
2013-07-14 12:47:00,81.9,38.1,30.26,WNW,295,2.0,4.0,21,0.00,,,0.00,meteohub,2013-07-14 19:47:00,
2013-07-14 12:52:00,82.8,40.1,30.25,NNW,340,1.0,4.0,22,0.00,,,0.00,meteohub,2013-07-14 19:52:00,
2013-07-14 12:57:00,82.9,40.1,30.25,WNW,298,3.0,4.0,22,0.00,,,0.00,meteohub,2013-07-14 19:57:00,
2013-07-14 13:03:00,83.1,45.7,30.25,NW,311,2.0,4.0,27,0.00,,,0.00,meteohub,2013-07-14 20:03:00,
2013-07-14 13:08:00,82.8,43.3,30.25,NW,307,3.0,6.0,25,0.00,,,0.00,meteohub,2013-07-14 20:08:00,
2013-07-14 13:13:00,82.8,43.3,30.25,WNW,282,5.0,6.0,25,0.00,,,0.00,meteohub,2013-07-14 20:13:00,
2013-07-14 13:18:00,82.9,46.4,30.25,NW,323,5.0,6.0,28,0.00,,,0.00,meteohub,2013-07-14 20:18:00,
2013-07-14 13:23:00,83.3,45.9,30.25,NW,314,1.0,7.0,27,0.00,,,0.00,meteohub,2013-07-14 20:23:00,
2013-07-14 13:29:00,83.7,47.1,30.24,West,280,2.0,7.0,28,0.00,,,0.00,meteohub,2013-07-14 20:29:00,
2013-07-14 13:34:00,83.8,44.2,30.24,WNW,295,4.0,7.0,25,0.00,,,0.00,meteohub,2013-07-14 20:34:00,
2013-07-14 13:39:00,84.2,41.2,30.24,WNW,282,3.0,7.0,22,0.00,,,0.00,meteohub,2013-07-14 20:39:00,
2013-07-14 13:44:00,84.0,44.4,30.24,WSW,246,4.0,7.0,25,0.00,,,0.00,meteohub,2013-07-14 20:44:00,
2013-07-14 13:49:00,84.7,43.9,30.23,West,275,4.0,8.0,24,0.00,,,0.00,meteohub,2013-07-14 20:49:00,
2013-07-14 13:55:00,84.7,45.0,30.23,WNW,289,3.0,8.0,25,0.00,,,0.00,meteohub,2013-07-14 20:55:00,
2013-07-14 14:00:00,84.9,47.1,30.23,SW,230,1.0,8.0,27,0.00,,,0.00,meteohub,2013-07-14 21:00:00,
2013-07-14 14:05:00,84.9,48.2,30.22,WNW,286,9.0,9.0,28,0.00,,,0.00,meteohub,2013-07-14 21:05:00,
2013-07-14 14:10:00,85.1,50.2,30.22,WNW,290,4.0,7.0,30,0.00,,,0.00,meteohub,2013-07-14 21:10:00,
2013-07-14 14:15:00,85.3,50.4,30.22,SW,233,2.0,9.0,30,0.00,,,0.00,meteohub,2013-07-14 21:15:00,
2013-07-14 14:20:00,85.3,51.3,30.22,SW,223,9.0,9.0,31,0.00,,,0.00,meteohub,2013-07-14 21:20:00,
2013-07-14 14:25:00,84.7,51.6,30.22,West,279,4.0,11.0,32,0.00,,,0.00,meteohub,2013-07-14 21:25:00,
2013-07-14 14:31:00,84.9,50.9,30.21,WSW,244,3.0,11.0,31,0.00,,,0.00,meteohub,2013-07-14 21:31:00,
2013-07-14 14:36:00,85.5,51.4,30.21,WSW,249,2.0,11.0,31,0.00,,,0.00,meteohub,2013-07-14 21:36:00,
2013-07-14 14:41:00,85.3,49.5,30.21,SW,222,4.0,12.0,29,0.00,,,0.00,meteohub,2013-07-14 21:41:00,
2013-07-14 14:46:00,85.3,50.4,30.21,WNW,282,5.0,13.0,30,0.00,,,0.00,meteohub,2013-07-14 21:46:00,
2013-07-14 14:51:00,85.5,50.5,30.20,West,269,11.0,13.0,30,0.00,,,0.00,meteohub,2013-07-14 21:51:00,
2013-07-14 14:56:00,85.6,49.8,30.20,WNW,292,6.0,13.0,29,0.00,,,0.00,meteohub,2013-07-14 21:56:00,
2013-07-14 15:02:00,85.8,49.8,30.20,WNW,292,5.0,12.0,29,0.00,,,0.00,meteohub,2013-07-14 22:02:00,
2013-07-14 15:07:00,86.4,49.5,30.19,WNW,291,6.0,12.0,28,0.00,,,0.00,meteohub,2013-07-14 22:07:00,
2013-07-14 15:12:00,87.1,50.0,30.19,SW,223,7.0,11.0,28,0.00,,,0.00,meteohub,2013-07-14 22:12:00,
2013-07-14 15:17:00,87.1,51.8,30.19,West,261,12.0,16.0,30,0.00,,,0.00,meteohub,2013-07-14 22:17:00,
2013-07-14 15:22:00,86.7,52.5,30.19,WSW,253,4.0,16.0,31,0.00,,,0.00,meteohub,2013-07-14 22:22:00,
2013-07-14 15:27:00,87.1,52.7,30.19,SW,236,8.0,16.0,31,0.00,,,0.00,meteohub,2013-07-14 22:27:00,
2013-07-14 15:33:00,86.7,52.5,30.19,WSW,242,4.0,15.0,31,0.00,,,0.00,meteohub,2013-07-14 22:33:00,
2013-07-14 15:38:00,86.7,50.7,30.19,WNW,286,6.0,20.0,29,0.00,,,0.00,meteohub,2013-07-14 22:38:00,
2013-07-14 15:43:00,86.7,52.5,30.18,WNW,287,6.0,20.0,31,0.00,,,0.00,meteohub,2013-07-14 22:43:00,
2013-07-14 15:48:00,86.9,53.4,30.18,WSW,246,7.0,15.0,32,0.00,,,0.00,meteohub,2013-07-14 22:48:00,
2013-07-14 15:53:00,86.9,52.7,30.18,SSW,202,7.0,14.0,31,0.00,,,0.00,meteohub,2013-07-14 22:53:00,
2013-07-14 15:59:00,86.7,53.4,30.18,WNW,290,6.0,19.0,32,0.00,,,0.00,meteohub,2013-07-14 22:59:00,
2013-07-14 16:04:00,87.3,55.4,30.17,SW,222,3.0,19.0,34,0.00,,,0.00,meteohub,2013-07-14 23:04:00,
2013-07-14 16:09:00,87.1,54.5,30.17,SW,214,6.0,14.0,33,0.00,,,0.00,meteohub,2013-07-14 23:09:00,
2013-07-14 16:14:00,87.1,54.5,30.17,SW,225,10.0,15.0,33,0.00,,,0.00,meteohub,2013-07-14 23:14:00,
2013-07-14 16:19:00,87.3,54.7,30.17,WSW,257,7.0,15.0,33,0.00,,,0.00,meteohub,2013-07-14 23:19:00,
2013-07-14 16:24:00,87.6,55.0,30.17,West,264,6.0,15.0,33,0.00,,,0.00,meteohub,2013-07-14 23:24:00,
2013-07-14 16:30:00,87.6,55.0,30.17,SSW,199,8.0,14.0,33,0.00,,,0.00,meteohub,2013-07-14 23:30:00,
2013-07-14 16:35:00,87.3,55.4,30.17,WNW,284,5.0,15.0,34,0.00,,,0.00,meteohub,2013-07-14 23:35:00,
2013-07-14 16:40:00,87.3,54.7,30.17,West,280,7.0,17.0,33,0.00,,,0.00,meteohub,2013-07-14 23:40:00,
2013-07-14 16:45:00,87.4,55.6,30.16,WNW,284,6.0,17.0,34,0.00,,,0.00,meteohub,2013-07-14 23:45:00,
2013-07-14 16:50:00,87.6,55.0,30.16,SW,224,8.0,16.0,33,0.00,,,0.00,meteohub,2013-07-14 23:50:00,
2013-07-14 16:56:00,87.6,54.1,30.16,West,259,7.0,16.0,32,0.00,,,0.00,meteohub,2013-07-14 23:56:00,
2013-07-14 17:01:00,87.4,54.0,30.16,SW,222,10.0,15.0,32,0.00,,,0.00,meteohub,2013-07-15 00:01:00,
2013-07-14 17:06:00,87.6,54.1,30.16,WSW,238,6.0,15.0,32,0.00,,,0.00,meteohub,2013-07-15 00:06:00,
2013-07-14 17:11:00,87.4,54.0,30.16,WSW,242,5.0,15.0,32,0.00,,,0.00,meteohub,2013-07-15 00:11:00,
2013-07-14 17:16:00,87.4,54.9,30.15,WSW,246,10.0,15.0,33,0.00,,,0.00,meteohub,2013-07-15 00:16:00,
2013-07-14 17:21:00,87.3,53.8,30.15,WNW,300,3.0,15.0,32,0.00,,,0.00,meteohub,2013-07-15 00:21:00,
2013-07-14 17:26:00,87.1,53.6,30.15,WNW,290,7.0,14.0,32,0.00,,,0.00,meteohub,2013-07-15 00:26:00,
2013-07-14 17:31:00,86.9,53.4,30.15,WNW,290,10.0,14.0,32,0.00,,,0.00,meteohub,2013-07-15 00:31:00,
2013-07-14 17:36:00,86.7,53.4,30.15,West,263,5.0,14.0,32,0.00,,,0.00,meteohub,2013-07-15 00:36:00,
2013-07-14 17:41:00,86.7,53.4,30.15,West,261,7.0,14.0,32,0.00,,,0.00,meteohub,2013-07-15 00:41:00,
2013-07-14 17:47:00,86.5,52.3,30.15,SW,227,7.0,13.0,31,0.00,,,0.00,meteohub,2013-07-15 00:47:00,
2013-07-14 17:52:00,86.5,52.3,30.14,West,270,7.0,17.0,31,0.00,,,0.00,meteohub,2013-07-15 00:52:00,
2013-07-14 17:57:00,86.5,51.4,30.14,SSW,197,3.0,17.0,30,0.00,,,0.00,meteohub,2013-07-15 00:57:00,
2013-07-14 18:03:00,86.5,51.4,30.14,WSW,248,10.0,17.0,30,0.00,,,0.00,meteohub,2013-07-15 01:03:00,
2013-07-14 18:08:00,86.4,51.3,30.14,West,275,6.0,12.0,30,0.00,,,0.00,meteohub,2013-07-15 01:08:00,
2013-07-14 18:13:00,86.5,50.5,30.14,SW,227,3.0,16.0,29,0.00,,,0.00,meteohub,2013-07-15 01:13:00,
2013-07-14 18:18:00,86.4,50.4,30.14,SW,234,4.0,16.0,29,0.00,,,0.00,meteohub,2013-07-15 01:18:00,
2013-07-14 18:23:00,86.4,49.5,30.14,West,269,3.0,16.0,28,0.00,,,0.00,meteohub,2013-07-15 01:23:00,
2013-07-14 18:28:00,86.4,49.5,30.14,WSW,248,3.0,16.0,28,0.00,,,0.00,meteohub,2013-07-15 01:28:00,
2013-07-14 18:33:00,86.2,49.3,30.14,SW,232,0.0,16.0,28,0.00,,,0.00,meteohub,2013-07-15 01:33:00,
2013-07-14 18:38:00,86.0,49.1,30.14,WSW,249,5.0,16.0,28,0.00,,,0.00,meteohub,2013-07-15 01:38:00,
2013-07-14 18:44:00,85.6,49.8,30.14,WSW,250,2.0,12.0,29,0.00,,,0.00,meteohub,2013-07-15 01:44:00,
2013-07-14 18:49:00,85.6,48.7,30.14,SSW,205,6.0,12.0,28,0.00,,,0.00,meteohub,2013-07-15 01:49:00,
2013-07-14 18:54:00,85.6,49.8,30.14,West,263,2.0,14.0,29,0.00,,,0.00,meteohub,2013-07-15 01:54:00,
2013-07-14 18:59:00,85.5,48.6,30.15,WSW,245,1.0,14.0,28,0.00,,,0.00,meteohub,2013-07-15 01:59:00,
2013-07-14 19:04:00,85.5,48.6,30.14,SSW,211,8.0,14.0,28,0.00,,,0.00,meteohub,2013-07-15 02:04:00,
2013-07-14 19:09:00,85.3,49.5,30.15,SSE,160,2.0,12.0,29,0.00,,,0.00,meteohub,2013-07-15 02:09:00,
2013-07-14 19:14:00,84.9,48.2,30.15,SSW,207,4.0,12.0,28,0.00,,,0.00,meteohub,2013-07-15 02:14:00,
2013-07-14 19:19:00,84.6,47.8,30.14,WSW,257,1.0,16.0,28,0.00,,,0.00,meteohub,2013-07-15 02:19:00,
2013-07-14 19:25:00,84.6,47.8,30.14,SE,144,6.0,16.0,28,0.00,,,0.00,meteohub,2013-07-15 02:25:00,
2013-07-14 19:30:00,84.4,48.7,30.14,SW,227,4.0,16.0,29,0.00,,,0.00,meteohub,2013-07-15 02:30:00,
2013-07-14 19:35:00,84.4,47.7,30.15,SW,227,5.0,15.0,28,0.00,,,0.00,meteohub,2013-07-15 02:35:00,
2013-07-14 19:40:00,84.2,47.5,30.15,SSW,211,2.0,11.0,28,0.00,,,0.00,meteohub,2013-07-15 02:40:00,
2013-07-14 19:45:00,84.0,47.5,30.15,NNW,333,2.0,8.0,28,0.00,,,0.00,meteohub,2013-07-15 02:45:00,
2013-07-14 19:50:00,83.7,47.1,30.15,SSE,164,7.0,9.0,28,0.00,,,0.00,meteohub,2013-07-15 02:50:00,
2013-07-14 19:55:00,83.5,46.9,30.15,WSW,237,3.0,10.0,28,0.00,,,0.00,meteohub,2013-07-15 02:55:00,
2013-07-14 20:01:00,83.1,46.6,30.15,WNW,283,9.0,10.0,28,0.00,,,0.00,meteohub,2013-07-15 03:01:00,
2013-07-14 20:06:00,82.6,47.1,30.15,SW,217,0.0,12.0,29,0.00,,,0.00,meteohub,2013-07-15 03:06:00,
2013-07-14 20:11:00,81.9,46.4,30.16,NNE,25,4.0,12.0,29,0.00,,,0.00,meteohub,2013-07-15 03:11:00,
2013-07-14 20:16:00,81.3,46.9,30.16,SW,214,1.0,12.0,30,0.00,,,0.00,meteohub,2013-07-15 03:16:00,
2013-07-14 20:21:00,81.0,46.6,30.16,SW,219,2.0,8.0,30,0.00,,,0.00,meteohub,2013-07-15 03:21:00,
2013-07-14 20:26:00,81.0,46.6,30.16,SE,144,2.0,8.0,30,0.00,,,0.00,meteohub,2013-07-15 03:26:00,
2013-07-14 20:31:00,80.4,46.2,30.16,ESE,115,0.0,7.0,30,0.00,,,0.00,meteohub,2013-07-15 03:31:00,
2013-07-14 20:36:00,79.9,45.7,30.16,NW,304,3.0,7.0,30,0.00,,,0.00,meteohub,2013-07-15 03:36:00,
2013-07-14 20:42:00,79.5,46.2,30.16,SSE,167,0.0,4.0,31,0.00,,,0.00,meteohub,2013-07-15 03:42:00,
2013-07-14 20:47:00,78.8,45.7,30.17,ESE,103,2.0,4.0,31,0.00,,,0.00,meteohub,2013-07-15 03:47:00,
2013-07-14 20:52:00,78.4,46.2,30.17,SW,217,0.0,4.0,32,0.00,,,0.00,meteohub,2013-07-15 03:52:00,
2013-07-14 20:57:00,78.1,45.9,30.17,South,182,1.0,4.0,32,0.00,,,0.00,meteohub,2013-07-15 03:57:00,
2013-07-14 21:01:00,77.7,46.4,30.17,SSW,211,2.0,4.0,33,0.00,,,0.00,meteohub,2013-07-15 04:01:00,
2013-07-14 21:02:00,77.7,46.4,30.17,SSW,196,1.0,4.0,33,0.00,,,0.00,meteohub,2013-07-15 04:02:00,
2013-07-14 21:06:00,77.4,46.0,30.17,SSW,207,2.0,4.0,33,0.00,,,0.00,meteohub,2013-07-15 04:06:00,
2013-07-14 21:07:00,77.4,46.8,30.17,SE,141,0.0,4.0,34,0.00,,,0.00,meteohub,2013-07-15 04:07:00,
2013-07-14 21:13:00,76.8,46.4,30.17,SSE,150,1.0,3.0,34,0.00,,,0.00,meteohub,2013-07-15 04:13:00,
2013-07-14 21:18:00,76.6,46.2,30.17,SSW,205,3.0,5.0,34,0.00,,,0.00,meteohub,2013-07-15 04:18:00,
2013-07-14 21:24:00,76.6,46.9,30.17,South,190,1.0,5.0,35,0.00,,,0.00,meteohub,2013-07-15 04:24:00,
2013-07-14 21:29:00,76.6,46.9,30.17,SW,223,4.0,8.0,35,0.00,,,0.00,meteohub,2013-07-15 04:29:00,
2013-07-14 21:34:00,76.5,47.5,30.17,WSW,238,3.0,13.0,36,0.00,,,0.00,meteohub,2013-07-15 04:34:00,
2013-07-14 21:39:00,76.1,48.0,30.18,SW,228,6.0,13.0,37,0.00,,,0.00,meteohub,2013-07-15 04:39:00,
2013-07-14 21:45:00,75.7,48.4,30.18,South,183,3.0,13.0,38,0.00,,,0.00,meteohub,2013-07-15 04:45:00,
2013-07-14 21:50:00,75.7,49.1,30.18,SW,214,3.0,9.0,39,0.00,,,0.00,meteohub,2013-07-15 04:50:00,
2013-07-14 21:55:00,75.6,49.5,30.18,South,172,3.0,11.0,40,0.00,,,0.00,meteohub,2013-07-15 04:55:00,
2013-07-14 22:00:00,75.2,49.8,30.18,SE,145,4.0,11.0,41,0.00,,,0.00,meteohub,2013-07-15 05:00:00,
2013-07-14 22:05:00,75.0,50.4,30.18,WSW,242,7.0,10.0,42,0.00,,,0.00,meteohub,2013-07-15 05:05:00,
2013-07-14 22:10:00,74.8,50.9,30.18,SW,221,1.0,11.0,43,0.00,,,0.00,meteohub,2013-07-15 05:10:00,
2013-07-14 22:15:00,74.5,51.1,30.18,SW,219,4.0,11.0,44,0.00,,,0.00,meteohub,2013-07-15 05:15:00,
2013-07-14 22:21:00,74.3,50.9,30.18,SSW,210,6.0,12.0,44,0.00,,,0.00,meteohub,2013-07-15 05:21:00,
2013-07-14 22:26:00,74.1,51.4,30.18,WSW,253,4.0,16.0,45,0.00,,,0.00,meteohub,2013-07-15 05:26:00,
2013-07-14 22:31:00,73.9,51.3,30.19,SSW,196,5.0,16.0,45,0.00,,,0.00,meteohub,2013-07-15 05:31:00,
2013-07-14 22:36:00,73.8,51.6,30.18,SSW,209,7.0,16.0,46,0.00,,,0.00,meteohub,2013-07-15 05:36:00,
2013-07-14 22:41:00,73.6,52.2,30.19,SW,225,1.0,14.0,47,0.00,,,0.00,meteohub,2013-07-15 05:41:00,
2013-07-14 22:46:00,73.0,51.6,30.19,SW,221,2.0,13.0,47,0.00,,,0.00,meteohub,2013-07-15 05:46:00,
2013-07-14 22:51:00,72.7,51.8,30.19,WSW,256,5.0,13.0,48,0.00,,,0.00,meteohub,2013-07-15 05:51:00,
2013-07-14 22:56:00,72.5,51.6,30.19,SSW,202,3.0,11.0,48,0.00,,,0.00,meteohub,2013-07-15 05:56:00,
2013-07-14 23:02:00,72.3,52.2,30.19,WSW,244,7.0,11.0,49,0.00,,,0.00,meteohub,2013-07-15 06:02:00,
2013-07-14 23:07:00,72.0,51.8,30.19,WSW,242,8.0,11.0,49,0.00,,,0.00,meteohub,2013-07-15 06:07:00,
2013-07-14 23:12:00,72.0,51.8,30.19,SW,223,7.0,11.0,49,0.00,,,0.00,meteohub,2013-07-15 06:12:00,
2013-07-14 23:18:00,71.8,51.6,30.19,NW,321,5.0,11.0,49,0.00,,,0.00,meteohub,2013-07-15 06:18:00,
2013-07-14 23:23:00,71.8,51.6,30.19,WSW,253,7.0,15.0,49,0.00,,,0.00,meteohub,2013-07-15 06:23:00,
2013-07-14 23:28:00,71.4,51.3,30.19,WSW,241,5.0,15.0,49,0.00,,,0.00,meteohub,2013-07-15 06:28:00,
2013-07-14 23:33:00,71.2,51.1,30.20,SW,225,4.0,15.0,49,0.00,,,0.00,meteohub,2013-07-15 06:33:00,
2013-07-14 23:38:00,71.1,50.9,30.20,SSW,196,4.0,12.0,49,0.00,,,0.00,meteohub,2013-07-15 06:38:00,
2013-07-14 23:43:00,70.9,50.7,30.20,West,268,6.0,12.0,49,0.00,,,0.00,meteohub,2013-07-15 06:43:00,
2013-07-14 23:48:00,70.7,50.5,30.20,SW,226,8.0,12.0,49,0.00,,,0.00,meteohub,2013-07-15 06:48:00,
2013-07-14 23:53:00,70.5,50.4,30.20,SSW,210,3.0,12.0,49,0.00,,,0.00,meteohub,2013-07-15 06:53:00,
2013-07-14 23:58:00,70.5,50.4,30.20,SW,226,5.0,12.0,49,0.00,,,0.00,meteohub,2013-07-15 06:58:00,